Location: North Evanston
(42.0634°N, 87.6976°W)
Time: 21:58:46
(UTC+00:00)

Transit 2A - Pass Details

Date: 11 May 2026
Orbit: 595 x 948 km, 66.7° (Epoch: 9 June)

Event Time Altitude Azimuth Distance (km) Brightness Sun altitude
Rises 21:00:27 0° 171° (S) 3,599 9.5 42.6°
Reaches altitude 10° 21:03:31 10° 157° (SSE) 2,645 8.8 42.1°
Maximum altitude 21:08:15 23° 107° (ESE) 1,832 7.8 41.2°
Drops below altitude 10° 21:12:49 10° 57° (ENE) 2,550 8.4 40.4°
Sets 21:15:42 0° 44° (NE) 3,439 9.0 39.9°
